Location: Poughquag
(41.6090°N, 73.6820°W)
Time: 01:46:46
(UTC-04:00)

Explorer 11/Cluster Stage 4 - Pass Details

Date: 29 May 2020
Orbit: 467 x 1259 km, 28.8° (Epoch: 06 July)

Event Time Altitude Azimuth Distance (km) Brightness Sun altitude
Rises 12:42:22 0° 259° (W) 4,190 10.3 70.0°
Reaches altitude 10° 12:46:38 10° 240° (WSW) 3,228 10.0 70.1°
Maximum altitude 12:51:13 16° 206° (SSW) 2,742 9.9 70.2°
Drops below altitude 10° 12:55:39 10° 172° (S) 3,099 10.1 70.1°
Sets 12:59:38 0° 152° (SSE) 3,944 10.4 70.1°
